Location: Chochol
(49.7771°N, 14.9780°E)
Time: 22:51:09
(UTC+00:00)

Cosmos 2237 Rocket - Pass Details

Date: 09 April 2020
Orbit: 834 x 851 km, 71.0° (Epoch: 22 May)

Event Time Altitude Azimuth Distance (km) Brightness Sun altitude
Rises 23:36:27 0° 333° (NNW) 3,411 6.1 -31.7°
Reaches altitude 10° 23:39:06 10° 342° (NNW) 2,475 5.3 -31.6°
Maximum altitude 23:44:21 37° 49° (NE) 1,296 3.4 -31.4°
Enters shadow 23:46:02 31° 85° (E) 1,462 3.5 -31.4°
